Change the Weather History Date:

Tuesday, March 25, 2014

  Actual Average Record
Temperature  
Mean Temperature 77 °F 75 °F  
Max Temperature 83 °F 81 °F 86 °F (2005)
Min Temperature 71 °F 69 °F 59 °F (2006)
Degree Days  
Heating Degree Days 0 0  
Month to date heating degree days 0 0  
Since 1 July heating degree days 35 75  
Cooling Degree Days 12 10  
Month to date cooling degree days 263 220  
Year to date cooling degree days 769 602  
Growing Degree Days 26 (Base 50)    
Moisture  
Dew Point 68 °F    
Average Humidity 80    
Maximum Humidity 93    
Minimum Humidity 67    
Precipitation  
Precipitation 0.22 in 0.07 in 0.38 in (2013)
Month to date precipitation 1.44 1.87  
Year to date precipitation 5.13 5.69  
Snow  
Snow 0.00 in - - ()
Month to date snowfall 0.0  
Since 1 July snowfall 0.0  
Snow Depth 0.00 in    
Sea Level Pressure  
Sea Level Pressure 29.94 in    
Wind  
Wind Speed 12 mph (NNE)    
Max Wind Speed 22 mph    
Max Gust Speed 32 mph    
Visibility 9 miles    
Events Rain , Thunderstorm    
T = Trace of Precipitation, MM = Missing Value Source: NWS Daily Summary

Daily Weather History Graph

Daily Weather History Graph

Search for Another Location

Airport or City:

Trip Planner

Search our weather history database for the weather conditions in past years. The results will help you decide how hot, cold, wet, or windy it might be!

Date:

Astronomy

Mar. 25, 2014 Rise Set
Actual Time 7:23 AM EDT 7:37 PM EDT
Civil Twilight 7:00 AM EDT 8:00 PM EDT
Nautical Twilight 6:33 AM EDT 8:26 PM EDT
Astronomical Twilight 6:06 AM EDT 8:53 PM EDT
Moon 3:12 AM EDT (3/25) 2:36 PM EDT (3/25)
Length of Visible Light 13h 00m
Length of Day
12h 14m
Waning Crescent, 32% of the Moon is Illuminated
Mar 25
Waning Crescent
Mar 30
New
Apr 7
First Quarter
Apr 15
Full
Apr 22
Last Quarter

Hourly Weather History & Observations

Time (EDT) Temp. Heat Index Dew Point Humidity Pressure Visibility Wind Dir Wind Speed Gust Speed Precip Events Conditions
12:53 AM 75.9 °F - 70.0 °F 82% 29.96 in 10.0 mi Calm Calm - N/A   Clear
1:53 AM 75.0 °F - 70.0 °F 84% 29.95 in 10.0 mi NNE 12.7 mph 17.3 mph N/A   Mostly Cloudy
1:55 AM 75.0 °F - 70.0 °F 84% 29.95 in 10.0 mi NNE 13.8 mph 20.7 mph N/A Thunderstorm Thunderstorm
2:02 AM 75.0 °F - 70.0 °F 84% 29.94 in 10.0 mi NE 13.8 mph 20.7 mph N/A Thunderstorm Thunderstorm
2:12 AM 73.9 °F - 70.0 °F 87% 29.94 in 10.0 mi NE 13.8 mph - N/A   Overcast
2:16 AM 73.9 °F - 69.1 °F 85% 29.93 in 10.0 mi NE 13.8 mph - N/A Thunderstorm Thunderstorm
2:41 AM 73.9 °F - 68.0 °F 82% 29.93 in 10.0 mi NE 10.4 mph 19.6 mph N/A Thunderstorm Thunderstorm
2:53 AM 73.9 °F - 68.0 °F 82% 29.92 in 10.0 mi NE 15.0 mph - N/A Thunderstorm Mostly Cloudy
3:01 AM 73.0 °F - 68.0 °F 84% 29.91 in 10.0 mi NE 16.1 mph - N/A   Scattered Clouds
3:22 AM 73.0 °F - 66.9 °F 81% 29.90 in 10.0 mi NE 12.7 mph - N/A Thunderstorm Thunderstorm
3:53 AM 72.0 °F - 66.9 °F 84% 29.91 in 10.0 mi East 11.5 mph - 0.00 in Rain , Thunderstorm Light Rain
4:00 AM 72.0 °F - 66.9 °F 84% 29.91 in 8.0 mi ENE 12.7 mph - 0.00 in Rain Light Rain
4:29 AM 71.1 °F - 66.9 °F 87% 29.91 in 10.0 mi ENE 9.2 mph - 0.01 in   Overcast
4:53 AM 71.1 °F - 68.0 °F 90% 29.91 in 10.0 mi ENE 6.9 mph - 0.01 in   Mostly Cloudy
5:04 AM 71.1 °F - 68.0 °F 90% 29.90 in 10.0 mi East 9.2 mph - N/A   Mostly Cloudy
5:53 AM 72.0 °F - 68.0 °F 87% 29.88 in 10.0 mi East 8.1 mph - N/A Thunderstorm Thunderstorm
6:08 AM 72.0 °F - 68.0 °F 87% 29.90 in 10.0 mi East 9.2 mph - N/A   Clear
6:48 AM 73.4 °F - 68.0 °F 83% 29.93 in 10.0 mi ENE 5.8 mph - N/A Thunderstorm Thunderstorm
6:53 AM 73.0 °F - 69.1 °F 87% 29.93 in 10.0 mi ENE 4.6 mph - N/A Thunderstorm Thunderstorm
7:03 AM 73.0 °F - 69.1 °F 87% 29.92 in 10.0 mi ENE 6.9 mph - N/A   Mostly Cloudy
7:17 AM 73.0 °F - 69.1 °F 87% 29.93 in 10.0 mi NE 5.8 mph - N/A   Overcast
7:53 AM 73.0 °F - 69.1 °F 87% 29.97 in 5.0 mi NNE 6.9 mph - 0.06 in Rain Rain
8:07 AM 73.0 °F - 70.0 °F 90% 29.96 in 5.0 mi NE 6.9 mph - 0.04 in Rain , Thunderstorm Rain
8:43 AM 72.0 °F - 70.0 °F 93% 29.95 in 2.5 mi Variable 4.6 mph - 0.11 in Rain Rain
8:48 AM 71.6 °F - 69.8 °F 94% 29.95 in 2.5 mi SSW 4.6 mph - 0.12 in Rain , Thunderstorm Light Thunderstorms and Rain
8:53 AM 72.0 °F - 70.0 °F 93% 29.96 in 2.5 mi SSW 6.9 mph - 0.13 in Rain , Thunderstorm Thunderstorms and Rain
9:11 AM 72.0 °F - 70.0 °F 93% 29.97 in 6.0 mi SSW 6.9 mph - 0.02 in Rain , Thunderstorm Light Thunderstorms and Rain
9:41 AM 72.0 °F - 70.0 °F 93% 29.97 in 8.0 mi South 4.6 mph - 0.02 in   Mostly Cloudy
9:53 AM 72.0 °F - 71.1 °F 97% 29.98 in 10.0 mi SSW 8.1 mph - 0.02 in   Mostly Cloudy
10:53 AM 73.9 °F - 71.1 °F 91% 29.98 in 10.0 mi SSW 3.5 mph - N/A   Scattered Clouds
11:53 AM 80.1 °F 83.6 °F 71.1 °F 74% 29.96 in 10.0 mi SSW 6.9 mph - N/A   Partly Cloudy
12:53 PM 80.1 °F 83.6 °F 71.1 °F 74% 29.93 in 10.0 mi SSW 10.4 mph 16.1 mph N/A   Clear
1:53 PM 82.0 °F 86.3 °F 71.1 °F 69% 29.91 in 10.0 mi Variable 6.9 mph 23.0 mph N/A   Partly Cloudy
2:53 PM 81.0 °F 84.1 °F 69.1 °F 67% 29.91 in 10.0 mi WSW 16.1 mph 28.8 mph N/A   Scattered Clouds
3:53 PM 81.0 °F 84.1 °F 69.1 °F 67% 29.89 in 10.0 mi West 15.0 mph 27.6 mph N/A   Scattered Clouds
4:53 PM 80.1 °F 82.9 °F 69.1 °F 69% 29.91 in 10.0 mi West 18.4 mph 26.5 mph N/A   Mostly Cloudy
5:53 PM 79.0 °F - 66.9 °F 66% 29.91 in 10.0 mi WNW 15.0 mph 26.5 mph N/A   Partly Cloudy
6:53 PM 77.0 °F - 68.0 °F 74% 29.94 in 10.0 mi WNW 15.0 mph 25.3 mph N/A   Partly Cloudy
7:53 PM 73.9 °F - 68.0 °F 82% 29.96 in 10.0 mi NW 16.1 mph 25.3 mph N/A   Partly Cloudy
8:53 PM 73.0 °F - 66.9 °F 81% 29.98 in 10.0 mi NW 18.4 mph 27.6 mph N/A   Partly Cloudy
9:07 PM 73.0 °F - 66.0 °F 79% 30.00 in 10.0 mi NW 19.6 mph 26.5 mph N/A   Mostly Cloudy
9:45 PM 72.0 °F - 64.0 °F 76% 30.01 in 10.0 mi NW 19.6 mph 29.9 mph N/A   Scattered Clouds
9:53 PM 72.0 °F - 64.9 °F 78% 30.02 in 10.0 mi NW 18.4 mph 28.8 mph N/A   Scattered Clouds
10:53 PM 72.0 °F - 63.0 °F 73% 30.03 in 10.0 mi NNW 17.3 mph 28.8 mph N/A   Clear
11:53 PM 71.1 °F - 61.0 °F 70% 30.04 in 10.0 mi NW 15.0 mph 25.3 mph N/A   Clear